Time,TemperatureF,DewpointF,PressureIn,WindDirection,WindDirectionDegrees,WindSpeedMPH,WindSpeedGustMPH,Humidity,HourlyPrecipIn,Conditions,Clouds,dailyrainin,SoftwareType,DateUTC
2013-01-11 00:00:00,21.5,9.0,22.08,NNW,340,2.0,21.0,58,0.00,,,0.00,Wunderground v.1.15,2013-01-11 07:00:00,
2013-01-11 00:02:00,21.8,9.3,22.08,NNW,339,3.0,21.0,58,0.00,,,0.00,Wunderground v.1.15,2013-01-11 07:02:00,
2013-01-11 00:04:00,21.9,9.4,22.08,SW,233,3.0,3.0,58,0.00,,,0.00,Wunderground v.1.15,2013-01-11 07:04:00,
2013-01-11 00:10:00,21.3,8.4,22.07,SW,226,2.0,21.0,57,0.00,,,0.00,Wunderground v.1.15,2013-01-11 07:10:00,
2013-01-11 00:12:00,21.3,8.8,22.07,ENE,60,1.0,21.0,58,0.00,,,0.00,Wunderground v.1.15,2013-01-11 07:12:00,
2013-01-11 00:18:00,21.5,9.0,22.07,NNW,346,2.0,21.0,58,0.00,,,0.00,Wunderground v.1.15,2013-01-11 07:18:00,
2013-01-11 00:20:00,21.6,9.1,22.07,NNW,346,2.0,21.0,58,0.00,,,0.00,Wunderground v.1.15,2013-01-11 07:20:00,
2013-01-11 00:22:00,21.6,9.1,22.07,ESE,107,1.0,21.0,58,0.00,,,0.00,Wunderground v.1.15,2013-01-11 07:22:00,
2013-01-11 00:26:00,21.2,8.7,22.07,SE,127,1.0,21.0,58,0.00,,,0.00,Wunderground v.1.15,2013-01-11 07:26:00,
2013-01-11 00:28:00,20.9,8.4,22.07,SE,127,0.0,21.0,58,0.00,,,0.00,Wunderground v.1.15,2013-01-11 07:28:00,
2013-01-11 00:30:00,20.9,8.4,22.07,SE,127,0.0,21.0,58,0.00,,,0.00,Wunderground v.1.15,2013-01-11 07:30:00,
2013-01-11 00:32:00,20.6,8.1,22.07,SW,228,0.0,21.0,58,0.00,,,0.00,Wunderground v.1.15,2013-01-11 07:32:00,
2013-01-11 00:36:00,20.2,8.1,22.07,NNW,344,0.0,21.0,59,0.00,,,0.00,Wunderground v.1.15,2013-01-11 07:36:00,
2013-01-11 00:38:00,20.2,8.5,22.08,NW,323,1.0,21.0,60,0.00,,,0.00,Wunderground v.1.15,2013-01-11 07:38:00,
2013-01-11 00:42:00,20.2,8.5,22.07,WNW,300,1.0,21.0,60,0.00,,,0.00,Wunderground v.1.15,2013-01-11 07:42:00,
2013-01-11 00:44:00,20.2,8.5,22.07,West,266,1.0,1.0,60,0.00,,,0.00,Wunderground v.1.15,2013-01-11 07:44:00,
2013-01-11 00:46:00,20.1,8.4,22.07,NNW,347,1.0,2.0,60,0.00,,,0.00,Wunderground v.1.15,2013-01-11 07:46:00,
2013-01-11 00:48:00,20.0,8.3,22.07,SW,224,1.0,21.0,60,0.00,,,0.00,Wunderground v.1.15,2013-01-11 07:48:00,
2013-01-11 00:50:00,19.8,7.8,22.07,NNW,328,2.0,21.0,59,0.00,,,0.00,Wunderground v.1.15,2013-01-11 07:50:00,
2013-01-11 00:56:00,19.7,8.0,22.07,West,260,2.0,2.0,60,0.00,,,0.00,Wunderground v.1.15,2013-01-11 07:56:00,
2013-01-11 01:00:00,19.7,8.0,22.06,WSW,253,3.0,21.0,60,0.00,,,0.00,Wunderground v.1.15,2013-01-11 08:00:00,
2013-01-11 01:02:00,19.4,7.8,22.06,SSE,163,2.0,21.0,60,0.00,,,0.00,Wunderground v.1.15,2013-01-11 08:02:00,
2013-01-11 01:08:00,19.9,8.2,22.05,WSW,249,2.0,21.0,60,0.00,,,0.00,Wunderground v.1.15,2013-01-11 08:08:00,
2013-01-11 01:10:00,20.2,8.1,22.05,South,173,3.0,21.0,59,0.00,,,0.00,Wunderground v.1.15,2013-01-11 08:10:00,
2013-01-11 01:14:00,21.2,7.9,22.05,West,281,4.0,21.0,56,0.00,,,0.00,Wunderground v.1.15,2013-01-11 08:14:00,
2013-01-11 01:16:00,21.9,8.2,22.04,WNW,293,4.0,4.0,55,0.00,,,0.00,Wunderground v.1.15,2013-01-11 08:16:00,
2013-01-11 01:18:00,22.2,8.5,22.04,NW,317,3.0,21.0,55,0.00,,,0.00,Wunderground v.1.15,2013-01-11 08:18:00,
2013-01-11 01:22:00,22.5,8.3,22.04,NNW,340,2.0,21.0,54,0.00,,,0.00,Wunderground v.1.15,2013-01-11 08:22:00,
2013-01-11 01:24:00,22.8,8.2,22.04,NNW,340,2.0,21.0,53,0.00,,,0.00,Wunderground v.1.15,2013-01-11 08:24:00,
2013-01-11 01:26:00,22.9,7.9,22.04,NNW,340,2.0,2.0,52,0.00,,,0.00,Wunderground v.1.15,2013-01-11 08:26:00,
2013-01-11 01:28:00,22.7,8.1,22.04,SSW,212,2.0,21.0,53,0.00,,,0.00,Wunderground v.1.15,2013-01-11 08:28:00,
2013-01-11 01:34:00,22.0,7.5,22.04,NNW,346,1.0,21.0,53,0.00,,,0.00,Wunderground v.1.15,2013-01-11 08:34:00,
2013-01-11 01:36:00,21.6,7.5,22.04,SW,217,1.0,21.0,54,0.00,,,0.00,Wunderground v.1.15,2013-01-11 08:36:00,
2013-01-11 01:40:00,21.3,7.6,22.03,West,281,3.0,21.0,55,0.00,,,0.00,Wunderground v.1.15,2013-01-11 08:40:00,
2013-01-11 01:42:00,21.3,7.6,22.03,South,172,3.0,21.0,55,0.00,,,0.00,Wunderground v.1.15,2013-01-11 08:42:00,
2013-01-11 01:44:00,21.0,7.3,22.03,ESE,115,3.0,21.0,55,0.00,,,0.00,Wunderground v.1.15,2013-01-11 08:44:00,
2013-01-11 01:46:00,20.8,7.2,22.03,NNW,340,3.0,3.0,55,0.00,,,0.00,Wunderground v.1.15,2013-01-11 08:46:00,
2013-01-11 01:50:00,20.2,7.0,22.03,SSE,148,2.0,21.0,56,0.00,,,0.00,Wunderground v.1.15,2013-01-11 08:50:00,
2013-01-11 01:52:00,19.9,7.1,22.03,NNW,347,2.0,21.0,57,0.00,,,0.00,Wunderground v.1.15,2013-01-11 08:52:00,
2013-01-11 01:54:00,19.7,6.9,22.03,West,264,2.0,2.0,57,0.00,,,0.00,Wunderground v.1.15,2013-01-11 08:54:00,
2013-01-11 01:56:00,19.7,6.9,22.02,NE,37,2.0,21.0,57,0.00,,,0.00,Wunderground v.1.15,2013-01-11 08:56:00,
2013-01-11 01:58:00,19.7,6.9,22.03,SSW,194,2.0,21.0,57,0.00,,,0.00,Wunderground v.1.15,2013-01-11 08:58:00,
2013-01-11 02:02:00,18.9,6.5,22.03,WSW,258,2.0,21.0,58,0.00,,,0.00,Wunderground v.1.15,2013-01-11 09:02:00,
2013-01-11 02:04:00,18.7,6.7,22.02,North,4,2.0,2.0,59,0.00,,,0.00,Wunderground v.1.15,2013-01-11 09:04:00,
2013-01-11 02:10:00,18.4,6.8,22.02,East,84,1.0,21.0,60,0.00,,,0.00,Wunderground v.1.15,2013-01-11 09:10:00,
2013-01-11 02:14:00,18.1,6.9,22.02,West,267,1.0,1.0,61,0.00,,,0.00,Wunderground v.1.15,2013-01-11 09:14:00,
2013-01-11 02:16:00,17.9,6.7,22.02,NNW,348,1.0,3.0,61,0.00,,,0.00,Wunderground v.1.15,2013-01-11 09:16:00,
2013-01-11 02:18:00,18.1,6.9,22.02,North,356,1.0,21.0,61,0.00,,,0.00,Wunderground v.1.15,2013-01-11 09:18:00,
2013-01-11 02:20:00,18.3,7.1,22.02,WSW,246,1.0,21.0,61,0.00,,,0.00,Wunderground v.1.15,2013-01-11 09:20:00,
2013-01-11 02:24:00,18.1,6.9,22.02,ENE,68,1.0,21.0,61,0.00,,,0.00,Wunderground v.1.15,2013-01-11 09:24:00,
2013-01-11 02:28:00,17.8,6.6,22.02,West,270,1.0,21.0,61,0.00,,,0.00,Wunderground v.1.15,2013-01-11 09:28:00,
2013-01-11 02:34:00,17.5,6.7,22.01,North,357,2.0,2.0,62,0.00,,,0.00,Wunderground v.1.15,2013-01-11 09:34:00,
2013-01-11 02:36:00,17.7,6.5,22.01,NNW,329,2.0,21.0,61,0.00,,,0.00,Wunderground v.1.15,2013-01-11 09:36:00,
2013-01-11 02:40:00,18.1,6.5,22.01,ESE,114,2.0,21.0,60,0.00,,,0.00,Wunderground v.1.15,2013-01-11 09:40:00,
2013-01-11 02:42:00,18.0,6.1,22.01,East,79,1.0,21.0,59,0.00,,,0.00,Wunderground v.1.15,2013-01-11 09:42:00,
2013-01-11 02:46:00,20.6,6.6,22.01,WSW,247,3.0,21.0,54,0.00,,,0.00,Wunderground v.1.15,2013-01-11 09:46:00,
2013-01-11 02:48:00,24.9,6.0,22.01,South,179,4.0,21.0,44,0.00,,,0.00,Wunderground v.1.15,2013-01-11 09:48:00,
2013-01-11 02:50:00,26.4,7.4,22.01,SE,133,4.0,21.0,44,0.00,,,0.00,Wunderground v.1.15,2013-01-11 09:50:00,
2013-01-11 02:54:00,25.4,6.5,22.01,WSW,247,4.0,21.0,44,0.00,,,0.00,Wunderground v.1.15,2013-01-11 09:54:00,
2013-01-11 02:56:00,25.2,5.3,22.01,WSW,255,3.0,21.0,42,0.00,,,0.00,Wunderground v.1.15,2013-01-11 09:56:00,
2013-01-11 02:58:00,26.6,5.5,22.01,SW,215,2.0,21.0,40,0.00,,,0.00,Wunderground v.1.15,2013-01-11 09:58:00,
2013-01-11 03:02:00,29.7,5.3,22.01,SW,215,4.0,21.0,35,0.00,,,0.00,Wunderground v.1.15,2013-01-11 10:02:00,
2013-01-11 03:04:00,30.6,5.5,22.01,South,171,5.0,5.0,34,0.00,,,0.00,Wunderground v.1.15,2013-01-11 10:04:00,
2013-01-11 03:08:00,32.8,6.1,22.01,SW,217,6.0,21.0,32,0.00,,,0.00,Wunderground v.1.15,2013-01-11 10:08:00,
2013-01-11 03:10:00,33.6,6.1,22.00,SSW,205,6.0,21.0,31,0.00,,,0.00,Wunderground v.1.15,2013-01-11 10:10:00,
2013-01-11 03:14:00,34.1,5.9,22.00,SW,236,6.0,6.0,30,0.00,,,0.00,Wunderground v.1.15,2013-01-11 10:14:00,
2013-01-11 03:20:00,34.1,6.6,21.99,SW,233,3.0,21.0,31,0.00,,,0.00,Wunderground v.1.15,2013-01-11 10:20:00,
2013-01-11 03:22:00,34.1,6.6,21.99,West,260,3.0,21.0,31,0.00,,,0.00,Wunderground v.1.15,2013-01-11 10:22:00,
2013-01-11 03:26:00,34.3,6.7,21.99,WSW,238,4.0,21.0,31,0.00,,,0.00,Wunderground v.1.15,2013-01-11 10:26:00,
2013-01-11 03:28:00,34.3,6.7,21.98,SSW,207,4.0,21.0,31,0.00,,,0.00,Wunderground v.1.15,2013-01-11 10:28:00,
2013-01-11 03:34:00,31.5,7.6,21.98,SSW,202,1.0,1.0,36,0.00,,,0.00,Wunderground v.1.15,2013-01-11 10:34:00,
2013-01-11 03:36:00,29.5,7.5,21.98,SSW,198,1.0,21.0,39,0.00,,,0.00,Wunderground v.1.15,2013-01-11 10:36:00,
2013-01-11 03:38:00,27.8,7.1,21.98,South,176,1.0,21.0,41,0.00,,,0.00,Wunderground v.1.15,2013-01-11 10:38:00,
2013-01-11 03:42:00,24.6,7.2,21.99,SSE,160,1.0,21.0,47,0.00,,,0.00,Wunderground v.1.15,2013-01-11 10:42:00,
2013-01-11 03:44:00,23.5,7.1,21.98,North,360,1.0,1.0,49,0.00,,,0.00,Wunderground v.1.15,2013-01-11 10:44:00,
2013-01-11 03:46:00,22.8,6.9,21.98,ESE,108,2.0,3.0,50,0.00,,,0.00,Wunderground v.1.15,2013-01-11 10:46:00,
2013-01-11 03:52:00,21.5,7.0,21.98,SSE,164,2.0,21.0,53,0.00,,,0.00,Wunderground v.1.15,2013-01-11 10:52:00,
2013-01-11 03:56:00,21.1,7.0,21.98,ESE,115,1.0,21.0,54,0.00,,,0.00,Wunderground v.1.15,2013-01-11 10:56:00,
2013-01-11 04:00:00,21.3,7.2,21.97,North,351,1.0,21.0,54,0.00,,,0.00,Wunderground v.1.15,2013-01-11 11:00:00,
2013-01-11 04:02:00,21.4,6.9,21.97,North,355,1.0,21.0,53,0.00,,,0.00,Wunderground v.1.15,2013-01-11 11:02:00,
2013-01-11 04:08:00,22.1,7.6,21.97,WSW,249,2.0,21.0,53,0.00,,,0.00,Wunderground v.1.15,2013-01-11 11:08:00,
2013-01-11 04:12:00,22.4,7.4,21.97,South,190,2.0,21.0,52,0.00,,,0.00,Wunderground v.1.15,2013-01-11 11:12:00,
2013-01-11 04:18:00,23.2,9.4,21.97,ENE,61,1.0,21.0,55,0.00,,,0.00,Wunderground v.1.15,2013-01-11 11:18:00,
2013-01-11 04:22:00,24.4,10.5,21.97,SSE,167,1.0,21.0,55,0.00,,,0.00,Wunderground v.1.15,2013-01-11 11:22:00,
2013-01-11 04:28:00,26.5,12.1,21.97,SW,225,1.0,21.0,54,0.00,,,0.00,Wunderground v.1.15,2013-01-11 11:28:00,
2013-01-11 04:30:00,27.3,12.4,21.97,SW,215,1.0,21.0,53,0.00,,,0.00,Wunderground v.1.15,2013-01-11 11:30:00,
2013-01-11 04:36:00,29.1,12.3,21.96,WSW,250,3.0,21.0,49,0.00,,,0.00,Wunderground v.1.15,2013-01-11 11:36:00,
2013-01-11 04:40:00,29.7,11.9,21.96,SSW,205,3.0,21.0,47,0.00,,,0.00,Wunderground v.1.15,2013-01-11 11:40:00,
2013-01-11 04:42:00,30.0,12.2,21.96,East,89,3.0,21.0,47,0.00,,,0.00,Wunderground v.1.15,2013-01-11 11:42:00,
2013-01-11 04:48:00,30.3,13.4,21.96,WNW,302,2.0,21.0,49,0.00,,,0.00,Wunderground v.1.15,2013-01-11 11:48:00,
2013-01-11 04:54:00,30.1,14.6,21.95,WNW,299,2.0,21.0,52,0.00,,,0.00,Wunderground v.1.15,2013-01-11 11:54:00,
2013-01-11 04:58:00,29.9,14.8,21.95,SW,229,2.0,21.0,53,0.00,,,0.00,Wunderground v.1.15,2013-01-11 11:58:00,
2013-01-11 05:00:00,29.8,14.7,21.95,SW,233,2.0,21.0,53,0.00,,,0.00,Wunderground v.1.15,2013-01-11 12:00:00,
2013-01-11 05:04:00,29.7,15.1,21.95,WSW,240,2.0,21.0,54,0.00,,,0.00,Wunderground v.1.15,2013-01-11 12:04:00,
2013-01-11 05:06:00,29.6,15.8,21.95,SSW,211,2.0,21.0,56,0.00,,,0.00,Wunderground v.1.15,2013-01-11 12:06:00,
2013-01-11 05:10:00,29.3,15.9,21.95,NNW,330,2.0,21.0,57,0.00,,,0.00,Wunderground v.1.15,2013-01-11 12:10:00,
2013-01-11 05:12:00,29.2,15.8,21.94,West,274,3.0,21.0,57,0.00,,,0.00,Wunderground v.1.15,2013-01-11 12:12:00,
2013-01-11 05:14:00,29.2,15.8,21.94,NNE,16,3.0,21.0,57,0.00,,,0.00,Wunderground v.1.15,2013-01-11 12:14:00,
2013-01-11 05:18:00,29.0,15.7,21.94,WNW,301,2.0,21.0,57,0.00,,,0.00,Wunderground v.1.15,2013-01-11 12:18:00,
2013-01-11 05:20:00,29.0,16.1,21.94,NW,305,2.0,21.0,58,0.00,,,0.00,Wunderground v.1.15,2013-01-11 12:20:00,
2013-01-11 05:24:00,28.9,16.0,21.94,WSW,242,2.0,2.0,58,0.00,,,0.00,Wunderground v.1.15,2013-01-11 12:24:00,
2013-01-11 05:26:00,28.8,16.3,21.94,NE,56,2.0,21.0,59,0.00,,,0.00,Wunderground v.1.15,2013-01-11 12:26:00,
2013-01-11 05:28:00,28.7,16.2,21.94,SW,224,2.0,21.0,59,0.00,,,0.00,Wunderground v.1.15,2013-01-11 12:28:00,
2013-01-11 05:32:00,28.5,16.4,21.94,SSW,202,1.0,21.0,60,0.00,,,0.00,Wunderground v.1.15,2013-01-11 12:32:00,
2013-01-11 05:34:00,28.5,16.4,21.94,WNW,285,2.0,21.0,60,0.00,,,0.00,Wunderground v.1.15,2013-01-11 12:34:00,
2013-01-11 05:36:00,28.4,16.7,21.94,West,274,2.0,21.0,61,0.00,,,0.00,Wunderground v.1.15,2013-01-11 12:36:00,
2013-01-11 05:42:00,28.2,17.9,21.94,WSW,240,4.0,21.0,65,0.00,,,0.00,Wunderground v.1.15,2013-01-11 12:42:00,
2013-01-11 05:46:00,27.8,18.3,21.94,WSW,245,6.0,21.0,67,0.00,,,0.00,Wunderground v.1.15,2013-01-11 12:46:00,
2013-01-11 05:48:00,27.7,18.5,21.94,North,5,6.0,21.0,68,0.00,,,0.00,Wunderground v.1.15,2013-01-11 12:48:00,
2013-01-11 05:52:00,27.3,18.5,21.94,West,280,4.0,21.0,69,0.00,,,0.00,Wunderground v.1.15,2013-01-11 12:52:00,
2013-01-11 05:54:00,27.2,18.7,21.93,SW,221,3.0,3.0,70,0.00,,,0.00,Wunderground v.1.15,2013-01-11 12:54:00,
2013-01-11 05:56:00,27.0,18.8,21.94,West,273,3.0,21.0,71,0.00,,,0.00,Wunderground v.1.15,2013-01-11 12:56:00,
2013-01-11 06:00:00,26.7,19.2,21.93,SW,231,3.0,21.0,73,0.00,,,0.00,Wunderground v.1.15,2013-01-11 13:00:00,
2013-01-11 06:02:00,26.6,19.1,21.93,West,276,3.0,21.0,73,0.00,,,0.00,Wunderground v.1.15,2013-01-11 13:02:00,
2013-01-11 06:04:00,26.5,19.3,21.93,West,277,3.0,21.0,74,0.00,,,0.00,Wunderground v.1.15,2013-01-11 13:04:00,
2013-01-11 06:08:00,26.3,19.5,21.93,WSW,248,3.0,21.0,75,0.00,,,0.00,Wunderground v.1.15,2013-01-11 13:08:00,
2013-01-11 06:10:00,26.2,19.4,21.93,East,84,2.0,21.0,75,0.00,,,0.00,Wunderground v.1.15,2013-01-11 13:10:00,
2013-01-11 06:12:00,26.2,19.4,21.93,East,89,2.0,21.0,75,0.00,,,0.00,Wunderground v.1.15,2013-01-11 13:12:00,
2013-01-11 06:16:00,26.1,19.6,21.93,WSW,248,2.0,21.0,76,0.00,,,0.00,Wunderground v.1.15,2013-01-11 13:16:00,
2013-01-11 06:20:00,26.0,19.5,21.94,West,262,3.0,21.0,76,0.00,,,0.00,Wunderground v.1.15,2013-01-11 13:20:00,
2013-01-11 06:26:00,26.1,19.6,21.94,SW,221,4.0,21.0,76,0.00,,,0.00,Wunderground v.1.15,2013-01-11 13:26:00,
2013-01-11 06:30:00,26.1,19.3,21.94,SW,235,4.0,21.0,75,0.00,,,0.00,Wunderground v.1.15,2013-01-11 13:30:00,
2013-01-11 06:32:00,26.2,19.0,21.94,SW,229,5.0,21.0,74,0.00,,,0.00,Wunderground v.1.15,2013-01-11 13:32:00,
2013-01-11 06:38:00,26.5,19.0,21.95,WSW,243,4.0,21.0,73,0.00,,,0.00,Wunderground v.1.15,2013-01-11 13:38:00,
2013-01-11 06:40:00,26.5,18.7,21.95,SW,226,4.0,21.0,72,0.00,,,0.00,Wunderground v.1.15,2013-01-11 13:40:00,
2013-01-11 06:44:00,26.7,17.9,21.95,NW,305,3.0,21.0,69,0.00,,,0.00,Wunderground v.1.15,2013-01-11 13:44:00,
2013-01-11 06:46:00,26.9,17.7,21.95,West,271,3.0,21.0,68,0.00,,,0.00,Wunderground v.1.15,2013-01-11 13:46:00,
2013-01-11 06:50:00,26.9,18.1,21.95,WSW,253,4.0,21.0,69,0.00,,,0.00,Wunderground v.1.15,2013-01-11 13:50:00,
2013-01-11 06:52:00,26.9,18.4,21.95,SW,233,4.0,21.0,70,0.00,,,0.00,Wunderground v.1.15,2013-01-11 13:52:00,
2013-01-11 06:54:00,26.8,18.7,21.95,SW,231,4.0,4.0,71,0.00,,,0.00,Wunderground v.1.15,2013-01-11 13:54:00,
2013-01-11 06:56:00,26.7,18.6,21.95,SSW,194,3.0,21.0,71,0.00,,,0.00,Wunderground v.1.15,2013-01-11 13:56:00,
2013-01-11 06:58:00,26.6,18.8,21.95,WSW,246,3.0,21.0,72,0.00,,,0.00,Wunderground v.1.15,2013-01-11 13:58:00,
2013-01-11 07:02:00,26.4,18.9,21.95,WSW,238,2.0,21.0,73,0.00,,,0.00,Wunderground v.1.15,2013-01-11 14:02:00,
2013-01-11 07:06:00,26.2,19.7,21.95,SSW,205,3.0,21.0,76,0.00,,,0.00,Wunderground v.1.15,2013-01-11 14:06:00,
2013-01-11 07:10:00,25.9,19.4,21.95,SSW,200,3.0,21.0,76,0.00,,,0.00,Wunderground v.1.15,2013-01-11 14:10:00,
2013-01-11 07:16:00,25.7,19.8,21.95,WSW,238,2.0,21.0,78,0.00,,,0.00,Wunderground v.1.15,2013-01-11 14:16:00,
2013-01-11 07:18:00,25.6,19.7,21.95,WSW,239,2.0,21.0,78,0.00,,,0.00,Wunderground v.1.15,2013-01-11 14:18:00,
2013-01-11 07:22:00,25.5,19.9,21.95,WSW,248,1.0,21.0,79,0.00,,,0.00,Wunderground v.1.15,2013-01-11 14:22:00,
2013-01-11 07:26:00,25.4,20.1,21.95,SW,219,0.0,3.0,80,0.00,,,0.00,Wunderground v.1.15,2013-01-11 14:26:00,
2013-01-11 07:28:00,25.3,20.0,21.95,SW,226,0.0,21.0,80,0.00,,,0.00,Wunderground v.1.15,2013-01-11 14:28:00,
2013-01-11 07:34:00,25.3,20.0,21.95,WSW,248,2.0,2.0,80,0.00,,,0.00,Wunderground v.1.15,2013-01-11 14:34:00,
2013-01-11 07:40:00,25.2,20.2,21.95,SSW,210,1.0,21.0,81,0.00,,,0.00,Wunderground v.1.15,2013-01-11 14:40:00,
2013-01-11 07:46:00,25.0,20.3,21.95,SSW,194,1.0,21.0,82,0.00,,,0.00,Wunderground v.1.15,2013-01-11 14:46:00,
2013-01-11 07:50:00,24.9,20.5,21.95,SW,231,2.0,21.0,83,0.00,,,0.00,Wunderground v.1.15,2013-01-11 14:50:00,
2013-01-11 07:52:00,24.8,20.1,21.96,SSW,211,2.0,21.0,82,0.00,,,0.00,Wunderground v.1.15,2013-01-11 14:52:00,
2013-01-11 07:54:00,24.7,19.4,21.96,South,177,3.0,3.0,80,0.00,,,0.00,Wunderground v.1.15,2013-01-11 14:54:00,
2013-01-11 08:00:00,24.3,17.8,21.96,SW,231,5.0,21.0,76,0.00,,,0.00,Wunderground v.1.15,2013-01-11 15:00:00,
2013-01-11 08:06:00,24.5,16.1,21.96,West,259,6.0,21.0,70,0.00,,,0.00,Wunderground v.1.15,2013-01-11 15:06:00,
2013-01-11 08:10:00,24.7,16.3,21.96,SW,233,5.0,21.0,70,0.00,,,0.00,Wunderground v.1.15,2013-01-11 15:10:00,
2013-01-11 08:12:00,24.7,16.6,21.95,WSW,243,5.0,21.0,71,0.00,,,0.00,Wunderground v.1.15,2013-01-11 15:12:00,
2013-01-11 08:18:00,24.4,16.3,21.95,West,280,5.0,21.0,71,0.00,,,0.00,Wunderground v.1.15,2013-01-11 15:18:00,
2013-01-11 08:22:00,24.3,15.9,21.95,SW,226,4.0,21.0,70,0.00,,,0.00,Wunderground v.1.15,2013-01-11 15:22:00,
2013-01-11 08:24:00,24.4,15.7,21.95,South,178,5.0,21.0,69,0.00,,,0.00,Wunderground v.1.15,2013-01-11 15:24:00,
2013-01-11 08:30:00,24.6,14.5,21.95,SW,232,5.0,21.0,65,0.00,,,0.00,Wunderground v.1.15,2013-01-11 15:30:00,
2013-01-11 08:32:00,24.6,14.5,21.95,SW,236,5.0,21.0,65,0.00,,,0.00,Wunderground v.1.15,2013-01-11 15:32:00,
2013-01-11 08:38:00,24.8,13.6,21.94,SW,231,6.0,8.0,62,0.00,,,0.00,Wunderground v.1.15,2013-01-11 15:38:00,
2013-01-11 08:40:00,24.8,13.6,21.94,NNW,340,6.0,21.0,62,0.00,,,0.00,Wunderground v.1.15,2013-01-11 15:40:00,
2013-01-11 08:46:00,24.9,13.3,21.94,NNE,18,5.0,21.0,61,0.00,,,0.00,Wunderground v.1.15,2013-01-11 15:46:00,
2013-01-11 08:50:00,24.9,13.7,21.94,WSW,249,4.0,21.0,62,0.00,,,0.00,Wunderground v.1.15,2013-01-11 15:50:00,
2013-01-11 08:54:00,24.8,14.3,21.94,WSW,255,4.0,4.0,64,0.00,,,0.00,Wunderground v.1.15,2013-01-11 15:54:00,
2013-01-11 08:56:00,24.8,14.3,21.94,South,188,4.0,21.0,64,0.00,,,0.00,Wunderground v.1.15,2013-01-11 15:56:00,
2013-01-11 08:58:00,24.7,14.9,21.94,North,1,4.0,21.0,66,0.00,,,0.00,Wunderground v.1.15,2013-01-11 15:58:00,
2013-01-11 09:02:00,23.9,17.1,21.95,WSW,243,5.0,21.0,75,0.00,,,0.00,Wunderground v.1.15,2013-01-11 16:02:00,
2013-01-11 09:04:00,23.4,16.9,21.95,SE,136,5.0,21.0,76,0.00,,,0.00,Wunderground v.1.15,2013-01-11 16:04:00,
2013-01-11 09:08:00,22.5,15.1,21.94,WSW,245,6.0,21.0,73,0.00,,,0.00,Wunderground v.1.15,2013-01-11 16:08:00,
2013-01-11 09:10:00,22.3,14.6,21.94,WSW,238,6.0,21.0,72,0.00,,,0.00,Wunderground v.1.15,2013-01-11 16:10:00,
2013-01-11 09:12:00,22.0,14.3,21.94,West,264,6.0,21.0,72,0.00,,,0.00,Wunderground v.1.15,2013-01-11 16:12:00,
2013-01-11 09:16:00,21.9,11.9,21.94,West,277,7.0,21.0,65,0.00,,,0.00,Wunderground v.1.15,2013-01-11 16:16:00,
2013-01-11 09:18:00,21.7,11.0,21.94,SW,233,8.0,21.0,63,0.00,,,0.00,Wunderground v.1.15,2013-01-11 16:18:00,
2013-01-11 09:24:00,21.1,11.5,21.94,NNW,343,7.0,7.0,66,0.00,,,0.00,Wunderground v.1.15,2013-01-11 16:24:00,
2013-01-11 09:30:00,20.1,11.9,21.95,WSW,254,9.0,21.0,70,0.00,,,0.00,Wunderground v.1.15,2013-01-11 16:30:00,
2013-01-11 09:32:00,19.9,12.0,21.95,WNW,288,9.0,21.0,71,0.00,,,0.00,Wunderground v.1.15,2013-01-11 16:32:00,
2013-01-11 09:38:00,19.6,10.4,21.94,SW,221,9.0,21.0,67,0.00,,,0.00,Wunderground v.1.15,2013-01-11 16:38:00,
2013-01-11 09:40:00,19.5,10.3,21.95,SW,226,9.0,21.0,67,0.00,,,0.00,Wunderground v.1.15,2013-01-11 16:40:00,
2013-01-11 09:42:00,19.5,10.0,21.95,WSW,240,9.0,21.0,66,0.00,,,0.00,Wunderground v.1.15,2013-01-11 16:42:00,
2013-01-11 09:44:00,19.6,9.4,21.95,West,273,10.0,10.0,64,0.00,,,0.00,Wunderground v.1.15,2013-01-11 16:44:00,
2013-01-11 09:46:00,19.6,9.4,21.95,SW,214,9.0,11.0,64,0.00,,,0.00,Wunderground v.1.15,2013-01-11 16:46:00,
2013-01-11 09:50:00,19.6,8.3,21.95,West,274,9.0,21.0,61,0.00,,,0.00,Wunderground v.1.15,2013-01-11 16:50:00,
2013-01-11 09:52:00,19.6,8.3,21.96,SW,228,9.0,21.0,61,0.00,,,0.00,Wunderground v.1.15,2013-01-11 16:52:00,
2013-01-11 09:56:00,19.7,6.9,21.96,SW,219,10.0,21.0,57,0.00,,,0.00,Wunderground v.1.15,2013-01-11 16:56:00,
2013-01-11 09:58:00,19.7,6.9,21.95,SW,236,11.0,21.0,57,0.00,,,0.00,Wunderground v.1.15,2013-01-11 16:58:00,
2013-01-11 10:00:00,19.7,7.3,21.95,NW,316,11.0,21.0,58,0.00,,,0.00,Wunderground v.1.15,2013-01-11 17:00:00,
2013-01-11 10:04:00,19.8,6.6,21.95,WSW,238,10.0,21.0,56,0.00,,,0.00,Wunderground v.1.15,2013-01-11 17:04:00,
2013-01-11 10:06:00,19.9,6.7,21.96,SSW,193,9.0,21.0,56,0.00,,,0.00,Wunderground v.1.15,2013-01-11 17:06:00,
2013-01-11 10:08:00,20.0,6.0,21.95,SSW,204,9.0,21.0,54,0.00,,,0.00,Wunderground v.1.15,2013-01-11 17:08:00,
2013-01-11 10:14:00,20.3,4.6,21.95,WSW,250,8.0,21.0,50,0.00,,,0.00,Wunderground v.1.15,2013-01-11 17:14:00,
2013-01-11 10:16:00,20.4,3.8,21.95,West,261,9.0,21.0,48,0.00,,,0.00,Wunderground v.1.15,2013-01-11 17:16:00,
2013-01-11 10:18:00,20.4,4.2,21.95,WNW,283,9.0,21.0,49,0.00,,,0.00,Wunderground v.1.15,2013-01-11 17:18:00,
2013-01-11 10:22:00,20.6,3.1,21.95,WSW,240,10.0,21.0,46,0.00,,,0.00,Wunderground v.1.15,2013-01-11 17:22:00,
2013-01-11 10:26:00,20.8,2.3,21.95,WSW,249,10.0,21.0,44,0.00,,,0.00,Wunderground v.1.15,2013-01-11 17:26:00,
2013-01-11 10:28:00,20.9,1.9,21.94,SW,216,10.0,21.0,43,0.00,,,0.00,Wunderground v.1.15,2013-01-11 17:28:00,
2013-01-11 10:32:00,21.0,2.0,21.94,WNW,300,11.0,21.0,43,0.00,,,0.00,Wunderground v.1.15,2013-01-11 17:32:00,
2013-01-11 10:34:00,21.1,2.1,21.94,SSW,210,11.0,21.0,43,0.00,,,0.00,Wunderground v.1.15,2013-01-11 17:34:00,
2013-01-11 10:36:00,21.2,1.6,21.94,SSW,211,12.0,21.0,42,0.00,,,0.00,Wunderground v.1.15,2013-01-11 17:36:00,
2013-01-11 10:38:00,21.3,2.2,21.94,SW,217,10.0,21.0,43,0.00,,,0.00,Wunderground v.1.15,2013-01-11 17:38:00,
2013-01-11 10:42:00,21.4,0.2,21.94,WNW,285,11.0,21.0,39,0.00,,,0.00,Wunderground v.1.15,2013-01-11 17:42:00,
2013-01-11 10:48:00,21.5,-0.2,21.94,SW,225,11.0,21.0,38,0.00,,,0.00,Wunderground v.1.15,2013-01-11 17:48:00,
2013-01-11 10:50:00,21.6,-0.7,21.94,WSW,249,10.0,21.0,37,0.00,,,0.00,Wunderground v.1.15,2013-01-11 17:50:00,
2013-01-11 10:54:00,21.6,-0.1,21.94,WSW,248,12.0,21.0,38,0.00,,,0.00,Wunderground v.1.15,2013-01-11 17:54:00,
2013-01-11 10:56:00,21.6,-0.1,21.94,South,188,12.0,21.0,38,0.00,,,0.00,Wunderground v.1.15,2013-01-11 17:56:00,
2013-01-11 11:00:00,21.8,1.1,21.93,WSW,256,11.0,21.0,40,0.00,,,0.00,Wunderground v.1.15,2013-01-11 18:00:00,
2013-01-11 11:02:00,21.9,0.1,21.94,SW,214,11.0,21.0,38,0.00,,,0.00,Wunderground v.1.15,2013-01-11 18:02:00,
2013-01-11 11:06:00,21.9,0.7,21.93,SSW,202,12.0,21.0,39,0.00,,,0.00,Wunderground v.1.15,2013-01-11 18:06:00,
2013-01-11 11:10:00,22.2,1.0,21.93,WSW,248,12.0,21.0,39,0.00,,,0.00,Wunderground v.1.15,2013-01-11 18:10:00,
2013-01-11 11:12:00,22.2,-0.2,21.93,SW,233,12.0,21.0,37,0.00,,,0.00,Wunderground v.1.15,2013-01-11 18:12:00,
2013-01-11 11:14:00,22.3,1.1,21.93,WNW,298,12.0,12.0,39,0.00,,,0.00,Wunderground v.1.15,2013-01-11 18:14:00,
2013-01-11 11:16:00,22.4,1.1,21.93,WSW,256,11.0,21.0,39,0.00,,,0.00,Wunderground v.1.15,2013-01-11 18:16:00,
2013-01-11 11:22:00,22.3,-1.3,21.93,SW,226,14.0,21.0,35,0.00,,,0.00,Wunderground v.1.15,2013-01-11 18:22:00,
2013-01-11 11:28:00,22.4,-0.6,21.93,West,280,15.0,21.0,36,0.00,,,0.00,Wunderground v.1.15,2013-01-11 18:28:00,
2013-01-11 11:32:00,22.3,-1.3,21.93,WSW,240,14.0,21.0,35,0.00,,,0.00,Wunderground v.1.15,2013-01-11 18:32:00,
2013-01-11 11:34:00,22.4,-1.2,21.92,WSW,238,16.0,26.0,35,0.00,,,0.00,Wunderground v.1.15,2013-01-11 18:34:00,
2013-01-11 11:38:00,22.6,-1.6,21.92,West,281,18.0,26.0,34,0.00,,,0.00,Wunderground v.1.15,2013-01-11 18:38:00,
2013-01-11 11:40:00,22.7,-2.1,21.91,WSW,250,18.0,26.0,33,0.00,,,0.00,Wunderground v.1.15,2013-01-11 18:40:00,
2013-01-11 11:46:00,23.0,-2.5,21.91,SW,228,16.0,21.0,32,0.00,,,0.00,Wunderground v.1.15,2013-01-11 18:46:00,
2013-01-11 11:52:00,22.9,-2.6,21.91,West,264,16.0,31.0,32,0.00,,,0.00,Wunderground v.1.15,2013-01-11 18:52:00,
2013-01-11 11:54:00,22.8,-2.7,21.92,WSW,243,15.0,21.0,32,0.00,,,0.00,Wunderground v.1.15,2013-01-11 18:54:00,
2013-01-11 11:58:00,22.6,-2.9,21.91,WNW,299,15.0,22.0,32,0.00,,,0.00,Wunderground v.1.15,2013-01-11 18:58:00,
2013-01-11 12:00:00,22.6,-3.6,21.91,SW,224,15.0,22.0,31,0.00,,,0.00,Wunderground v.1.15,2013-01-11 19:00:00,
2013-01-11 12:06:00,22.3,-1.9,21.92,SSW,198,17.0,25.0,34,0.00,,,0.00,Wunderground v.1.15,2013-01-11 19:06:00,
2013-01-11 12:08:00,22.0,-2.1,21.91,WSW,238,17.0,25.0,34,0.00,,,0.00,Wunderground v.1.15,2013-01-11 19:08:00,
2013-01-11 12:10:00,21.7,-2.4,21.91,SW,236,17.0,25.0,34,0.00,,,0.00,Wunderground v.1.15,2013-01-11 19:10:00,
2013-01-11 12:12:00,21.5,-4.5,21.91,SW,226,17.0,25.0,31,0.00,,,0.00,Wunderground v.1.15,2013-01-11 19:12:00,
2013-01-11 12:18:00,20.9,-3.1,21.91,West,269,16.0,29.0,34,0.00,,,0.00,Wunderground v.1.15,2013-01-11 19:18:00,
2013-01-11 12:22:00,20.7,-3.3,21.91,WSW,250,18.0,29.0,34,0.00,,,0.00,Wunderground v.1.15,2013-01-11 19:22:00,
2013-01-11 12:24:00,20.7,-2.7,21.92,WSW,243,18.0,21.0,35,0.00,,,0.00,Wunderground v.1.15,2013-01-11 19:24:00,
2013-01-11 12:28:00,20.6,-2.8,21.91,NNW,335,17.0,21.0,35,0.00,,,0.00,Wunderground v.1.15,2013-01-11 19:28:00,
2013-01-11 12:30:00,20.7,-2.1,21.92,WSW,250,15.0,21.0,36,0.00,,,0.00,Wunderground v.1.15,2013-01-11 19:30:00,
2013-01-11 12:32:00,20.7,-1.5,21.92,West,264,14.0,21.0,37,0.00,,,0.00,Wunderground v.1.15,2013-01-11 19:32:00,
2013-01-11 12:34:00,20.6,-1.6,21.92,SW,231,13.0,22.0,37,0.00,,,0.00,Wunderground v.1.15,2013-01-11 19:34:00,
2013-01-11 12:38:00,20.4,-0.7,21.92,WSW,247,11.0,22.0,39,0.00,,,0.00,Wunderground v.1.15,2013-01-11 19:38:00,
2013-01-11 12:40:00,20.4,0.4,21.92,SW,231,12.0,22.0,41,0.00,,,0.00,Wunderground v.1.15,2013-01-11 19:40:00,
2013-01-11 12:42:00,20.2,0.2,21.92,SSW,212,13.0,22.0,41,0.00,,,0.00,Wunderground v.1.15,2013-01-11 19:42:00,
2013-01-11 12:48:00,20.1,0.6,21.91,SW,217,10.0,21.0,42,0.00,,,0.00,Wunderground v.1.15,2013-01-11 19:48:00,
2013-01-11 12:50:00,20.1,0.6,21.92,WSW,245,9.0,21.0,42,0.00,,,0.00,Wunderground v.1.15,2013-01-11 19:50:00,
2013-01-11 12:52:00,20.1,1.6,21.91,WSW,243,9.0,21.0,44,0.00,,,0.00,Wunderground v.1.15,2013-01-11 19:52:00,
2013-01-11 12:56:00,19.7,3.6,21.92,WNW,284,9.0,21.0,49,0.00,,,0.00,Wunderground v.1.15,2013-01-11 19:56:00,
2013-01-11 13:00:00,18.8,7.6,21.94,WSW,253,11.0,21.0,61,0.00,,,0.00,Wunderground v.1.15,2013-01-11 20:00:00,
2013-01-11 13:02:00,18.1,8.0,21.93,WSW,248,12.0,21.0,64,0.00,,,0.00,Wunderground v.1.15,2013-01-11 20:02:00,
2013-01-11 13:04:00,17.7,7.6,21.93,SW,235,12.0,21.0,64,0.00,,,0.00,Wunderground v.1.15,2013-01-11 20:04:00,
2013-01-11 13:06:00,17.4,6.9,21.94,SW,221,13.0,21.0,63,0.00,,,0.00,Wunderground v.1.15,2013-01-11 20:06:00,
2013-01-11 13:10:00,17.3,5.4,21.94,SSW,211,12.0,21.0,59,0.00,,,0.00,Wunderground v.1.15,2013-01-11 20:10:00,
2013-01-11 13:14:00,17.0,6.9,21.94,SSW,198,11.0,11.0,64,0.00,,,0.00,Wunderground v.1.15,2013-01-11 20:14:00,
2013-01-11 13:16:00,16.9,7.2,21.95,WSW,240,10.0,21.0,65,0.00,,,0.00,Wunderground v.1.15,2013-01-11 20:16:00,
2013-01-11 13:18:00,16.6,8.5,21.94,SW,225,9.0,21.0,70,0.00,,,0.00,Wunderground v.1.15,2013-01-11 20:18:00,
2013-01-11 13:20:00,16.2,9.1,21.95,WSW,250,8.0,21.0,73,0.00,,,0.00,Wunderground v.1.15,2013-01-11 20:20:00,
2013-01-11 13:24:00,15.6,10.0,21.94,SW,223,9.0,9.0,78,0.00,,,0.00,Wunderground v.1.15,2013-01-11 20:24:00,
2013-01-11 13:26:00,15.5,9.6,21.95,SW,233,9.0,21.0,77,0.00,,,0.00,Wunderground v.1.15,2013-01-11 20:26:00,
2013-01-11 13:30:00,15.6,8.5,21.94,SW,231,10.0,21.0,73,0.00,,,0.00,Wunderground v.1.15,2013-01-11 20:30:00,
2013-01-11 13:32:00,15.8,8.4,21.94,West,260,9.0,21.0,72,0.00,,,0.00,Wunderground v.1.15,2013-01-11 20:32:00,
2013-01-11 13:34:00,16.0,7.9,21.94,West,269,9.0,21.0,70,0.00,,,0.00,Wunderground v.1.15,2013-01-11 20:34:00,
2013-01-11 13:36:00,16.2,7.8,21.94,SSW,205,9.0,21.0,69,0.00,,,0.00,Wunderground v.1.15,2013-01-11 20:36:00,
2013-01-11 13:38:00,16.5,6.8,21.94,WSW,250,7.0,21.0,65,0.00,,,0.00,Wunderground v.1.15,2013-01-11 20:38:00,
2013-01-11 13:42:00,17.2,4.2,21.94,ESE,103,11.0,21.0,56,0.00,,,0.00,Wunderground v.1.15,2013-01-11 20:42:00,
2013-01-11 13:50:00,18.1,2.6,21.94,SW,233,11.0,21.0,50,0.00,,,0.00,Wunderground v.1.15,2013-01-11 20:50:00,
2013-01-11 13:52:00,18.3,2.3,21.95,SW,231,9.0,21.0,49,0.00,,,0.00,Wunderground v.1.15,2013-01-11 20:52:00,
2013-01-11 13:54:00,18.3,0.5,21.95,SSW,210,11.0,11.0,45,0.00,,,0.00,Wunderground v.1.15,2013-01-11 20:54:00,
2013-01-11 13:56:00,18.4,2.0,21.95,SW,225,11.0,18.0,48,0.00,,,0.00,Wunderground v.1.15,2013-01-11 20:56:00,
2013-01-11 13:58:00,18.4,-0.4,21.94,SW,217,11.0,21.0,43,0.00,,,0.00,Wunderground v.1.15,2013-01-11 20:58:00,
2013-01-11 14:00:00,18.5,1.1,21.95,SW,236,11.0,21.0,46,0.00,,,0.00,Wunderground v.1.15,2013-01-11 21:00:00,
2013-01-11 14:06:00,18.5,-1.3,21.96,WSW,252,12.0,21.0,41,0.00,,,0.00,Wunderground v.1.15,2013-01-11 21:06:00,
2013-01-11 14:12:00,18.7,-1.7,21.96,South,188,13.0,21.0,40,0.00,,,0.00,Wunderground v.1.15,2013-01-11 21:12:00,
2013-01-11 14:14:00,18.8,-1.6,21.96,WSW,248,12.0,12.0,40,0.00,,,0.00,Wunderground v.1.15,2013-01-11 21:14:00,
2013-01-11 14:20:00,18.8,0.5,21.96,WSW,253,10.0,21.0,44,0.00,,,0.00,Wunderground v.1.15,2013-01-11 21:20:00,
2013-01-11 14:22:00,18.7,0.8,21.97,SW,228,9.0,21.0,45,0.00,,,0.00,Wunderground v.1.15,2013-01-11 21:22:00,
2013-01-11 14:28:00,18.4,1.5,21.97,SW,235,9.0,21.0,47,0.00,,,0.00,Wunderground v.1.15,2013-01-11 21:28:00,
2013-01-11 14:30:00,18.5,1.6,21.97,SW,214,9.0,21.0,47,0.00,,,0.00,Wunderground v.1.15,2013-01-11 21:30:00,
2013-01-11 14:32:00,18.3,0.5,21.98,WSW,255,8.0,21.0,45,0.00,,,0.00,Wunderground v.1.15,2013-01-11 21:32:00,
2013-01-11 14:34:00,18.2,-0.1,21.97,NW,309,8.0,8.0,44,0.00,,,0.00,Wunderground v.1.15,2013-01-11 21:34:00,
2013-01-11 14:38:00,18.2,-0.6,21.97,West,274,9.0,21.0,43,0.00,,,0.00,Wunderground v.1.15,2013-01-11 21:38:00,
2013-01-11 14:40:00,18.2,-0.6,21.97,WSW,240,9.0,21.0,43,0.00,,,0.00,Wunderground v.1.15,2013-01-11 21:40:00,
2013-01-11 14:42:00,18.3,-1.5,21.97,WSW,252,9.0,21.0,41,0.00,,,0.00,Wunderground v.1.15,2013-01-11 21:42:00,
2013-01-11 14:44:00,18.2,-2.1,21.97,SW,214,9.0,9.0,40,0.00,,,0.00,Wunderground v.1.15,2013-01-11 21:44:00,
2013-01-11 14:46:00,18.2,-1.6,21.98,WSW,252,10.0,10.0,41,0.00,,,0.00,Wunderground v.1.15,2013-01-11 21:46:00,
2013-01-11 14:48:00,18.3,-0.5,21.98,SW,219,9.0,21.0,43,0.00,,,0.00,Wunderground v.1.15,2013-01-11 21:48:00,
2013-01-11 14:52:00,18.1,2.6,21.99,WSW,243,9.0,21.0,50,0.00,,,0.00,Wunderground v.1.15,2013-01-11 21:52:00,
2013-01-11 14:54:00,17.6,6.1,21.99,WSW,248,8.0,8.0,60,0.00,,,0.00,Wunderground v.1.15,2013-01-11 21:54:00,
2013-01-11 14:56:00,16.9,7.2,21.99,SSW,207,6.0,21.0,65,0.00,,,0.00,Wunderground v.1.15,2013-01-11 21:56:00,
2013-01-11 14:58:00,16.3,7.3,22.00,SSW,210,7.0,21.0,67,0.00,,,0.00,Wunderground v.1.15,2013-01-11 21:58:00,
2013-01-11 15:04:00,15.8,5.1,21.99,SSW,212,8.0,21.0,62,0.00,,,0.00,Wunderground v.1.15,2013-01-11 22:04:00,
2013-01-11 15:06:00,15.9,4.8,22.00,WSW,240,11.0,21.0,61,0.00,,,0.00,Wunderground v.1.15,2013-01-11 22:06:00,
2013-01-11 15:12:00,16.0,4.5,22.00,SW,225,12.0,21.0,60,0.00,,,0.00,Wunderground v.1.15,2013-01-11 22:12:00,
2013-01-11 15:14:00,16.1,4.3,22.00,WSW,256,11.0,21.0,59,0.00,,,0.00,Wunderground v.1.15,2013-01-11 22:14:00,
2013-01-11 15:18:00,15.9,5.5,22.00,WSW,245,10.0,21.0,63,0.00,,,0.00,Wunderground v.1.15,2013-01-11 22:18:00,
2013-01-11 15:22:00,15.6,6.3,22.01,WSW,256,10.0,21.0,66,0.00,,,0.00,Wunderground v.1.15,2013-01-11 22:22:00,
2013-01-11 15:24:00,15.4,7.0,22.01,SW,224,11.0,23.0,69,0.00,,,0.00,Wunderground v.1.15,2013-01-11 22:24:00,
2013-01-11 15:26:00,15.3,5.6,22.01,WSW,239,11.0,23.0,65,0.00,,,0.00,Wunderground v.1.15,2013-01-11 22:26:00,
2013-01-11 15:28:00,15.3,6.0,22.01,WSW,245,10.0,23.0,66,0.00,,,0.00,Wunderground v.1.15,2013-01-11 22:28:00,
2013-01-11 15:30:00,15.4,5.7,22.02,SW,217,11.0,23.0,65,0.00,,,0.00,Wunderground v.1.15,2013-01-11 22:30:00,
2013-01-11 15:34:00,15.2,6.2,22.02,WSW,257,10.0,21.0,67,0.00,,,0.00,Wunderground v.1.15,2013-01-11 22:34:00,
2013-01-11 15:36:00,15.1,6.4,22.02,WNW,285,9.0,21.0,68,0.00,,,0.00,Wunderground v.1.15,2013-01-11 22:36:00,
2013-01-11 15:40:00,15.0,6.0,22.02,SW,214,10.0,21.0,67,0.00,,,0.00,Wunderground v.1.15,2013-01-11 22:40:00,
2013-01-11 15:42:00,15.0,6.3,22.02,South,184,9.0,21.0,68,0.00,,,0.00,Wunderground v.1.15,2013-01-11 22:42:00,
2013-01-11 15:48:00,15.1,4.1,22.03,WSW,253,8.0,21.0,61,0.00,,,0.00,Wunderground v.1.15,2013-01-11 22:48:00,
2013-01-11 15:54:00,15.2,4.9,22.03,WNW,302,8.0,21.0,63,0.00,,,0.00,Wunderground v.1.15,2013-01-11 22:54:00,
2013-01-11 15:56:00,15.1,5.4,22.03,WSW,248,8.0,21.0,65,0.00,,,0.00,Wunderground v.1.15,2013-01-11 22:56:00,
2013-01-11 16:00:00,14.7,6.0,22.03,SW,233,8.0,21.0,68,0.00,,,0.00,Wunderground v.1.15,2013-01-11 23:00:00,
2013-01-11 16:04:00,14.5,5.2,22.03,SW,225,10.0,21.0,66,0.00,,,0.00,Wunderground v.1.15,2013-01-11 23:04:00,
2013-01-11 16:06:00,14.4,4.8,22.04,WSW,252,10.0,21.0,65,0.00,,,0.00,Wunderground v.1.15,2013-01-11 23:06:00,
2013-01-11 16:10:00,14.5,2.0,22.04,SW,229,12.0,21.0,57,0.00,,,0.00,Wunderground v.1.15,2013-01-11 23:10:00,
2013-01-11 16:16:00,14.6,-0.3,22.04,WSW,238,13.0,18.0,51,0.00,,,0.00,Wunderground v.1.15,2013-01-11 23:16:00,
2013-01-11 16:18:00,14.7,-0.6,22.04,WSW,238,12.0,21.0,50,0.00,,,0.00,Wunderground v.1.15,2013-01-11 23:18:00,
2013-01-11 16:20:00,14.7,-1.5,22.04,WNW,302,12.0,21.0,48,0.00,,,0.00,Wunderground v.1.15,2013-01-11 23:20:00,
2013-01-11 16:24:00,14.7,-1.5,22.05,WNW,301,12.0,21.0,48,0.00,,,0.00,Wunderground v.1.15,2013-01-11 23:24:00,
2013-01-11 16:28:00,14.5,-0.4,22.05,WSW,257,11.0,21.0,51,0.00,,,0.00,Wunderground v.1.15,2013-01-11 23:28:00,
2013-01-11 16:34:00,14.3,-1.0,22.05,SSW,204,12.0,21.0,50,0.00,,,0.00,Wunderground v.1.15,2013-01-11 23:34:00,
2013-01-11 16:36:00,14.2,-1.5,22.06,SW,235,13.0,21.0,49,0.00,,,0.00,Wunderground v.1.15,2013-01-11 23:36:00,
2013-01-11 16:40:00,14.1,-1.2,22.06,SW,235,12.0,21.0,50,0.00,,,0.00,Wunderground v.1.15,2013-01-11 23:40:00,
2013-01-11 16:44:00,14.0,-2.1,22.06,SSW,211,11.0,11.0,48,0.00,,,0.00,Wunderground v.1.15,2013-01-11 23:44:00,
2013-01-11 16:50:00,13.8,-2.7,22.06,West,271,11.0,21.0,47,0.00,,,0.00,Wunderground v.1.15,2013-01-11 23:50:00,
2013-01-11 16:52:00,13.7,-3.3,22.06,SW,228,10.0,21.0,46,0.00,,,0.00,Wunderground v.1.15,2013-01-11 23:52:00,
2013-01-11 16:58:00,13.6,-3.8,22.07,SSE,159,10.0,21.0,45,0.00,,,0.00,Wunderground v.1.15,2013-01-11 23:58:00,
2013-01-11 17:00:00,13.5,-4.4,22.07,SSW,209,10.0,21.0,44,0.00,,,0.00,Wunderground v.1.15,2013-01-12 00:00:00,
2013-01-11 17:02:00,13.4,-4.5,22.07,WSW,238,10.0,21.0,44,0.00,,,0.00,Wunderground v.1.15,2013-01-12 00:02:00,
2013-01-11 17:08:00,13.4,-5.5,22.08,West,260,10.0,22.0,42,0.00,,,0.00,Wunderground v.1.15,2013-01-12 00:08:00,
2013-01-11 17:12:00,13.3,-5.6,22.08,WSW,249,11.0,22.0,42,0.00,,,0.00,Wunderground v.1.15,2013-01-12 00:12:00,
2013-01-11 17:14:00,13.3,-5.6,22.08,West,267,11.0,21.0,42,0.00,,,0.00,Wunderground v.1.15,2013-01-12 00:14:00,
2013-01-11 17:16:00,13.2,-5.6,22.08,SW,221,11.0,21.0,42,0.00,,,0.00,Wunderground v.1.15,2013-01-12 00:16:00,
2013-01-11 17:20:00,13.1,-5.2,22.09,SSW,211,10.0,21.0,43,0.00,,,0.00,Wunderground v.1.15,2013-01-12 00:20:00,
2013-01-11 17:22:00,13.0,-5.3,22.09,WSW,255,9.0,21.0,43,0.00,,,0.00,Wunderground v.1.15,2013-01-12 00:22:00,
2013-01-11 17:26:00,12.9,-5.4,22.09,WSW,240,9.0,12.0,43,0.00,,,0.00,Wunderground v.1.15,2013-01-12 00:26:00,
2013-01-11 17:32:00,12.7,-5.1,22.09,South,176,9.0,21.0,44,0.00,,,0.00,Wunderground v.1.15,2013-01-12 00:32:00,
2013-01-11 17:34:00,12.6,-5.2,22.09,WNW,284,8.0,21.0,44,0.00,,,0.00,Wunderground v.1.15,2013-01-12 00:34:00,
2013-01-11 17:36:00,12.5,-4.9,22.09,WSW,240,9.0,21.0,45,0.00,,,0.00,Wunderground v.1.15,2013-01-12 00:36:00,
2013-01-11 17:40:00,12.5,-5.3,22.10,West,259,9.0,21.0,44,0.00,,,0.00,Wunderground v.1.15,2013-01-12 00:40:00,
2013-01-11 17:42:00,12.4,-4.9,22.10,WSW,239,9.0,21.0,45,0.00,,,0.00,Wunderground v.1.15,2013-01-12 00:42:00,
2013-01-11 17:44:00,12.4,-5.4,22.10,WNW,291,8.0,8.0,44,0.00,,,0.00,Wunderground v.1.15,2013-01-12 00:44:00,
2013-01-11 17:46:00,12.4,-5.4,22.10,SW,222,8.0,21.0,44,0.00,,,0.00,Wunderground v.1.15,2013-01-12 00:46:00,
2013-01-11 17:52:00,12.3,-6.0,22.11,WSW,253,8.0,21.0,43,0.00,,,0.00,Wunderground v.1.15,2013-01-12 00:52:00,
2013-01-11 17:56:00,12.1,-5.7,22.11,WSW,248,9.0,21.0,44,0.00,,,0.00,Wunderground v.1.15,2013-01-12 00:56:00,
2013-01-11 18:00:00,12.0,-6.3,22.11,WSW,249,8.0,21.0,43,0.00,,,0.00,Wunderground v.1.15,2013-01-12 01:00:00,
2013-01-11 18:02:00,12.1,-6.2,22.11,ESE,108,10.0,21.0,43,0.00,,,0.00,Wunderground v.1.15,2013-01-12 01:02:00,
2013-01-11 18:04:00,12.0,-6.3,22.11,West,271,11.0,11.0,43,0.00,,,0.00,Wunderground v.1.15,2013-01-12 01:04:00,
2013-01-11 18:06:00,12.0,-6.3,22.11,SW,226,11.0,12.0,43,0.00,,,0.00,Wunderground v.1.15,2013-01-12 01:06:00,
2013-01-11 18:10:00,11.9,-6.3,22.11,WSW,239,12.0,21.0,43,0.00,,,0.00,Wunderground v.1.15,2013-01-12 01:10:00,
2013-01-11 18:12:00,11.8,-6.4,22.11,SSW,212,11.0,21.0,43,0.00,,,0.00,Wunderground v.1.15,2013-01-12 01:12:00,
2013-01-11 18:16:00,11.7,-6.5,22.11,WSW,253,10.0,21.0,43,0.00,,,0.00,Wunderground v.1.15,2013-01-12 01:16:00,
2013-01-11 18:20:00,11.7,-7.0,22.12,WSW,243,10.0,21.0,42,0.00,,,0.00,Wunderground v.1.15,2013-01-12 01:20:00,
2013-01-11 18:26:00,11.5,-7.7,22.12,WSW,245,11.0,25.0,41,0.00,,,0.00,Wunderground v.1.15,2013-01-12 01:26:00,
2013-01-11 18:28:00,11.5,-7.7,22.12,WSW,254,11.0,25.0,41,0.00,,,0.00,Wunderground v.1.15,2013-01-12 01:28:00,
2013-01-11 18:34:00,11.3,-7.4,22.12,SW,217,10.0,21.0,42,0.00,,,0.00,Wunderground v.1.15,2013-01-12 01:34:00,
2013-01-11 18:38:00,11.1,-7.6,22.12,NW,314,10.0,21.0,42,0.00,,,0.00,Wunderground v.1.15,2013-01-12 01:38:00,
2013-01-11 18:44:00,11.0,-7.2,22.13,SSW,201,9.0,9.0,43,0.00,,,0.00,Wunderground v.1.15,2013-01-12 01:44:00,
2013-01-11 18:50:00,10.9,-6.8,22.13,NNE,32,7.0,21.0,44,0.00,,,0.00,Wunderground v.1.15,2013-01-12 01:50:00,
2013-01-11 18:54:00,10.8,-6.9,22.14,SW,229,7.0,21.0,44,0.00,,,0.00,Wunderground v.1.15,2013-01-12 01:54:00,
2013-01-11 19:00:00,10.7,-7.0,22.13,WSW,238,10.0,21.0,44,0.00,,,0.00,Wunderground v.1.15,2013-01-12 02:00:00,
2013-01-11 19:02:00,10.7,-6.5,22.13,WSW,245,10.0,21.0,45,0.00,,,0.00,Wunderground v.1.15,2013-01-12 02:02:00,
2013-01-11 19:04:00,10.7,-7.0,22.13,SW,236,10.0,21.0,44,0.00,,,0.00,Wunderground v.1.15,2013-01-12 02:04:00,
2013-01-11 19:10:00,10.6,-6.6,22.13,WSW,250,10.0,21.0,45,0.00,,,0.00,Wunderground v.1.15,2013-01-12 02:10:00,
2013-01-11 19:12:00,10.6,-6.6,22.13,South,184,10.0,21.0,45,0.00,,,0.00,Wunderground v.1.15,2013-01-12 02:12:00,
2013-01-11 19:14:00,10.5,-6.7,22.13,SW,236,11.0,21.0,45,0.00,,,0.00,Wunderground v.1.15,2013-01-12 02:14:00,
2013-01-11 19:16:00,10.6,-6.6,22.13,WSW,248,11.0,21.0,45,0.00,,,0.00,Wunderground v.1.15,2013-01-12 02:16:00,
2013-01-11 19:18:00,10.6,-6.6,22.13,WSW,250,12.0,21.0,45,0.00,,,0.00,Wunderground v.1.15,2013-01-12 02:18:00,
2013-01-11 19:22:00,10.7,-7.9,22.13,SW,226,13.0,21.0,42,0.00,,,0.00,Wunderground v.1.15,2013-01-12 02:22:00,
2013-01-11 19:24:00,10.8,-8.3,22.13,WSW,253,13.0,13.0,41,0.00,,,0.00,Wunderground v.1.15,2013-01-12 02:24:00,
2013-01-11 19:26:00,10.9,-8.7,22.13,SSW,195,12.0,21.0,40,0.00,,,0.00,Wunderground v.1.15,2013-01-12 02:26:00,
2013-01-11 19:30:00,10.9,-9.3,22.14,WSW,240,10.0,21.0,39,0.00,,,0.00,Wunderground v.1.15,2013-01-12 02:30:00,
2013-01-11 19:34:00,11.0,-9.2,22.14,SW,228,8.0,21.0,39,0.00,,,0.00,Wunderground v.1.15,2013-01-12 02:34:00,
2013-01-11 19:36:00,11.0,-9.2,22.14,SW,235,8.0,21.0,39,0.00,,,0.00,Wunderground v.1.15,2013-01-12 02:36:00,
2013-01-11 19:38:00,11.0,-9.7,22.14,WSW,253,8.0,21.0,38,0.00,,,0.00,Wunderground v.1.15,2013-01-12 02:38:00,
2013-01-11 19:42:00,11.1,-9.1,22.14,WSW,256,11.0,21.0,39,0.00,,,0.00,Wunderground v.1.15,2013-01-12 02:42:00,
2013-01-11 19:44:00,11.1,-9.1,22.14,SSW,195,11.0,21.0,39,0.00,,,0.00,Wunderground v.1.15,2013-01-12 02:44:00,
2013-01-11 19:46:00,11.1,-9.1,22.14,WSW,240,12.0,21.0,39,0.00,,,0.00,Wunderground v.1.15,2013-01-12 02:46:00,
2013-01-11 19:52:00,11.1,-8.6,22.15,WSW,250,12.0,21.0,40,0.00,,,0.00,Wunderground v.1.15,2013-01-12 02:52:00,
2013-01-11 19:54:00,11.0,-8.1,22.15,West,269,12.0,12.0,41,0.00,,,0.00,Wunderground v.1.15,2013-01-12 02:54:00,
2013-01-11 19:56:00,11.0,-8.1,22.15,West,269,11.0,14.0,41,0.00,,,0.00,Wunderground v.1.15,2013-01-12 02:56:00,
2013-01-11 19:58:00,10.9,-8.2,22.16,SW,222,10.0,21.0,41,0.00,,,0.00,Wunderground v.1.15,2013-01-12 02:58:00,
2013-01-11 20:02:00,10.9,-7.7,22.15,NNW,340,10.0,21.0,42,0.00,,,0.00,Wunderground v.1.15,2013-01-12 03:02:00,
2013-01-11 20:04:00,10.7,-7.4,22.15,WSW,247,9.0,21.0,43,0.00,,,0.00,Wunderground v.1.15,2013-01-12 03:04:00,
2013-01-11 20:08:00,10.5,-7.2,22.15,SW,222,10.0,21.0,44,0.00,,,0.00,Wunderground v.1.15,2013-01-12 03:08:00,
2013-01-11 20:10:00,10.5,-7.2,22.15,South,174,10.0,21.0,44,0.00,,,0.00,Wunderground v.1.15,2013-01-12 03:10:00,
2013-01-11 20:12:00,10.4,-7.2,22.15,SW,233,11.0,21.0,44,0.00,,,0.00,Wunderground v.1.15,2013-01-12 03:12:00,
2013-01-11 20:16:00,10.4,-7.7,22.15,SW,233,12.0,21.0,43,0.00,,,0.00,Wunderground v.1.15,2013-01-12 03:16:00,
2013-01-11 20:18:00,10.4,-7.7,22.15,SW,233,12.0,21.0,43,0.00,,,0.00,Wunderground v.1.15,2013-01-12 03:18:00,
2013-01-11 20:24:00,10.3,-7.8,22.15,SSW,198,12.0,12.0,43,0.00,,,0.00,Wunderground v.1.15,2013-01-12 03:24:00,
2013-01-11 20:28:00,10.2,-7.9,22.15,SW,219,11.0,21.0,43,0.00,,,0.00,Wunderground v.1.15,2013-01-12 03:28:00,
2013-01-11 20:30:00,10.2,-8.4,22.15,WSW,256,11.0,21.0,42,0.00,,,0.00,Wunderground v.1.15,2013-01-12 03:30:00,
2013-01-11 20:34:00,10.2,-8.4,22.15,SW,216,11.0,21.0,42,0.00,,,0.00,Wunderground v.1.15,2013-01-12 03:34:00,
2013-01-11 20:40:00,10.1,-8.5,22.15,SW,217,11.0,21.0,42,0.00,,,0.00,Wunderground v.1.15,2013-01-12 03:40:00,
2013-01-11 20:46:00,10.0,-8.6,22.15,West,264,12.0,21.0,42,0.00,,,0.00,Wunderground v.1.15,2013-01-12 03:46:00,
2013-01-11 20:48:00,10.1,-8.5,22.15,WSW,240,13.0,21.0,42,0.00,,,0.00,Wunderground v.1.15,2013-01-12 03:48:00,
2013-01-11 20:52:00,10.0,-8.6,22.15,SW,232,13.0,21.0,42,0.00,,,0.00,Wunderground v.1.15,2013-01-12 03:52:00,
2013-01-11 20:54:00,10.0,-9.1,22.15,SSW,212,13.0,13.0,41,0.00,,,0.00,Wunderground v.1.15,2013-01-12 03:54:00,
2013-01-11 21:00:00,9.8,-8.7,22.15,West,279,14.0,21.0,42,0.00,,,0.00,Wunderground v.1.15,2013-01-12 04:00:00,
2013-01-11 21:04:00,9.7,-8.4,22.16,South,181,13.0,21.0,43,0.00,,,0.00,Wunderground v.1.15,2013-01-12 04:04:00,
2013-01-11 21:06:00,9.7,-8.4,22.16,WSW,248,13.0,21.0,43,0.00,,,0.00,Wunderground v.1.15,2013-01-12 04:06:00,
2013-01-11 21:08:00,9.7,-8.4,22.16,WSW,250,13.0,21.0,43,0.00,,,0.00,Wunderground v.1.15,2013-01-12 04:08:00,
2013-01-11 21:12:00,9.6,-8.4,22.16,South,174,12.0,21.0,43,0.00,,,0.00,Wunderground v.1.15,2013-01-12 04:12:00,
2013-01-11 21:14:00,9.6,-8.4,22.16,SW,236,13.0,21.0,43,0.00,,,0.00,Wunderground v.1.15,2013-01-12 04:14:00,
2013-01-11 21:16:00,9.5,-8.5,22.16,SW,236,13.0,21.0,43,0.00,,,0.00,Wunderground v.1.15,2013-01-12 04:16:00,
2013-01-11 21:18:00,9.5,-8.5,22.16,WSW,243,12.0,21.0,43,0.00,,,0.00,Wunderground v.1.15,2013-01-12 04:18:00,
2013-01-11 21:24:00,9.5,-8.5,22.16,SSW,195,12.0,12.0,43,0.00,,,0.00,Wunderground v.1.15,2013-01-12 04:24:00,
2013-01-11 21:26:00,9.5,-8.5,22.16,SW,235,12.0,16.0,43,0.00,,,0.00,Wunderground v.1.15,2013-01-12 04:26:00,
2013-01-11 21:30:00,9.4,-8.6,22.16,West,267,12.0,21.0,43,0.00,,,0.00,Wunderground v.1.15,2013-01-12 04:30:00,
2013-01-11 21:36:00,9.4,-8.6,22.16,SW,228,12.0,21.0,43,0.00,,,0.00,Wunderground v.1.15,2013-01-12 04:36:00,
2013-01-11 21:40:00,9.4,-8.6,22.15,WNW,288,10.0,21.0,43,0.00,,,0.00,Wunderground v.1.15,2013-01-12 04:40:00,
2013-01-11 21:46:00,9.4,-9.1,22.15,NW,316,10.0,21.0,42,0.00,,,0.00,Wunderground v.1.15,2013-01-12 04:46:00,
2013-01-11 21:52:00,9.6,-9.4,22.15,SSW,208,11.0,21.0,41,0.00,,,0.00,Wunderground v.1.15,2013-01-12 04:52:00,
2013-01-11 21:54:00,9.6,-9.9,22.16,SW,222,12.0,21.0,40,0.00,,,0.00,Wunderground v.1.15,2013-01-12 04:54:00,
2013-01-11 21:56:00,9.6,-9.4,22.15,WSW,248,12.0,21.0,41,0.00,,,0.00,Wunderground v.1.15,2013-01-12 04:56:00,
2013-01-11 22:02:00,9.7,-9.8,22.15,SW,223,13.0,21.0,40,0.00,,,0.00,Wunderground v.1.15,2013-01-12 05:02:00,
2013-01-11 22:04:00,9.7,-9.3,22.15,WNW,303,12.0,12.0,41,0.00,,,0.00,Wunderground v.1.15,2013-01-12 05:04:00,
2013-01-11 22:10:00,9.6,-9.9,22.15,SW,225,10.0,21.0,40,0.00,,,0.00,Wunderground v.1.15,2013-01-12 05:10:00,
2013-01-11 22:14:00,9.6,-9.4,22.16,NNW,336,9.0,9.0,41,0.00,,,0.00,Wunderground v.1.15,2013-01-12 05:14:00,
2013-01-11 22:16:00,9.6,-9.4,22.16,SSW,211,8.0,21.0,41,0.00,,,0.00,Wunderground v.1.15,2013-01-12 05:16:00,
2013-01-11 22:18:00,9.5,-9.5,22.16,SSW,195,8.0,21.0,41,0.00,,,0.00,Wunderground v.1.15,2013-01-12 05:18:00,
2013-01-11 22:22:00,9.5,-9.5,22.16,NW,309,6.0,21.0,41,0.00,,,0.00,Wunderground v.1.15,2013-01-12 05:22:00,
2013-01-11 22:24:00,9.4,-9.6,22.16,SW,226,6.0,21.0,41,0.00,,,0.00,Wunderground v.1.15,2013-01-12 05:24:00,
2013-01-11 22:26:00,9.4,-9.6,22.16,WSW,257,6.0,21.0,41,0.00,,,0.00,Wunderground v.1.15,2013-01-12 05:26:00,
2013-01-11 22:28:00,9.4,-9.6,22.16,WSW,250,7.0,21.0,41,0.00,,,0.00,Wunderground v.1.15,2013-01-12 05:28:00,
2013-01-11 22:30:00,9.4,-9.6,22.16,West,269,8.0,21.0,41,0.00,,,0.00,Wunderground v.1.15,2013-01-12 05:30:00,
2013-01-11 22:32:00,9.4,-9.6,22.16,NW,309,8.0,21.0,41,0.00,,,0.00,Wunderground v.1.15,2013-01-12 05:32:00,
2013-01-11 22:34:00,9.4,-9.6,22.16,WNW,287,8.0,8.0,41,0.00,,,0.00,Wunderground v.1.15,2013-01-12 05:34:00,
2013-01-11 22:36:00,9.4,-9.6,22.16,West,276,8.0,21.0,41,0.00,,,0.00,Wunderground v.1.15,2013-01-12 05:36:00,
2013-01-11 22:42:00,9.3,-9.7,22.16,NNW,329,6.0,21.0,41,0.00,,,0.00,Wunderground v.1.15,2013-01-12 05:42:00,
2013-01-11 22:44:00,9.3,-10.2,22.17,West,264,6.0,6.0,40,0.00,,,0.00,Wunderground v.1.15,2013-01-12 05:44:00,
2013-01-11 22:48:00,9.2,-9.8,22.17,WSW,255,6.0,21.0,41,0.00,,,0.00,Wunderground v.1.15,2013-01-12 05:48:00,
2013-01-11 22:50:00,9.1,-9.9,22.17,WSW,253,6.0,21.0,41,0.00,,,0.00,Wunderground v.1.15,2013-01-12 05:50:00,
2013-01-11 22:54:00,9.1,-9.9,22.17,WSW,240,7.0,21.0,41,0.00,,,0.00,Wunderground v.1.15,2013-01-12 05:54:00,
2013-01-11 22:58:00,9.1,-9.9,22.18,West,261,7.0,21.0,41,0.00,,,0.00,Wunderground v.1.15,2013-01-12 05:58:00,
2013-01-11 23:04:00,9.1,-9.9,22.18,WSW,242,8.0,21.0,41,0.00,,,0.00,Wunderground v.1.15,2013-01-12 06:04:00,
2013-01-11 23:10:00,9.1,-9.9,22.18,West,277,7.0,21.0,41,0.00,,,0.00,Wunderground v.1.15,2013-01-12 06:10:00,
2013-01-11 23:12:00,9.1,-9.9,22.18,WNW,294,8.0,21.0,41,0.00,,,0.00,Wunderground v.1.15,2013-01-12 06:12:00,
2013-01-11 23:18:00,9.1,-9.9,22.18,NNE,22,9.0,21.0,41,0.00,,,0.00,Wunderground v.1.15,2013-01-12 06:18:00,
2013-01-11 23:22:00,9.0,-10.0,22.18,SE,136,8.0,21.0,41,0.00,,,0.00,Wunderground v.1.15,2013-01-12 06:22:00,
2013-01-11 23:26:00,8.9,-10.1,22.19,WSW,243,7.0,8.0,41,0.00,,,0.00,Wunderground v.1.15,2013-01-12 06:26:00,
2013-01-11 23:32:00,8.9,-10.1,22.19,SW,221,6.0,21.0,41,0.00,,,0.00,Wunderground v.1.15,2013-01-12 06:32:00,
2013-01-11 23:34:00,8.9,-10.1,22.19,SSW,200,6.0,6.0,41,0.00,,,0.00,Wunderground v.1.15,2013-01-12 06:34:00,
2013-01-11 23:40:00,8.7,-9.8,22.20,SSW,210,6.0,21.0,42,0.00,,,0.00,Wunderground v.1.15,2013-01-12 06:40:00,
2013-01-11 23:46:00,8.7,-9.8,22.20,WSW,257,7.0,14.0,42,0.00,,,0.00,Wunderground v.1.15,2013-01-12 06:46:00,
2013-01-11 23:50:00,8.7,-10.2,22.19,WNW,296,7.0,21.0,41,0.00,,,0.00,Wunderground v.1.15,2013-01-12 06:50:00,
2013-01-11 23:52:00,8.7,-10.2,22.19,WSW,238,7.0,21.0,41,0.00,,,0.00,Wunderground v.1.15,2013-01-12 06:52:00,
2013-01-11 23:54:00,8.6,-9.8,22.19,West,272,6.0,21.0,42,0.00,,,0.00,Wunderground v.1.15,2013-01-12 06:54:00,
2013-01-11 23:56:00,8.5,-9.9,22.20,SW,219,6.0,21.0,42,0.00,,,0.00,Wunderground v.1.15,2013-01-12 06:56:00,